Regional Weather Roundup
Issued by NWS Huntsville, AL

Home | Current Version | Previous Version | Text Only | Print | Product List | Glossary On
Versions: 1 2 3 4 5 6 7 8 9 10 11 12 13 14 15 16 17 18 19 20 21 22 23 24 25 26 27
000
ASUS44 KHUN 292310
RWRHUN

WEATHER ROUNDUP FOR THE TENNESSEE VALLEY
NATIONAL WEATHER SERVICE HUNTSVILLE AL
600 PM CDT MON AUG 29 2016

ALZ001>004-300000-
NORTHWEST ALABAMA

CITY           SKY/WX    TMP DP  RH WIND       PRES   REMARKS
COURTLAND HCN    N/A     88 N/A N/A NE8         N/A
RUSSELLVILLE     N/A     88 N/A N/A MISG        N/A
SHOALS AIRPORT SUNNY     91  68  46 E7        30.03F HX  95
SHOALS TVA RES   N/A    N/A N/A N/A MISG        N/A
$$

ALZ005>007-016-300000-
NORTH CENTRAL ALABAMA

CITY           SKY/WX    TMP DP  RH WIND       PRES   REMARKS
CULLMAN AG STN   N/A     90 N/A N/A E6          N/A
DECATUR AP     SUNNY     90  69  50 NE8       30.03F HX  94
HUNTSVILLE AP  MOSUNNY   92  65  40 NE13      30.03F HX  94
MERIDIANVILLE  SUNNY     88  59  37 NE6       30.05F
REDSTONE ARSN  SUNNY     89  67  47 E9        30.03F HX  92
VINEMONT AP    FAIR      89  62  40 NE6       30.06F
$$

ALZ008>010-300000-
NORTHEAST ALABAMA

CITY           SKY/WX    TMP DP  RH WIND       PRES   REMARKS
ALBERTVILLE    SUNNY     90  72  55 E5        30.04S HX  96
FORT PAYNE     SUNNY     86  61  42 N5        30.05S
SCOTTSBORO AP  SUNNY     91  64  40 NE7       30.04F HX  93
SCOTTSBORO HCN   N/A     90 N/A N/A MISG        N/A
VALLEY HEAD      N/A     86 N/A N/A MISG        N/A
$$

TNZ076-096-097-300000-
SOUTHEASTERN MIDDLE TENNESSEE

CITY           SKY/WX    TMP DP  RH WIND       PRES   REMARKS
TULLAHOMA      SUNNY     88  66  48 N6        30.10S HX  90
WINCHESTER     SUNNY     88  70  55 N7        30.07F HX  92
$$

...SURROUNDING SITES...

CITY           SKY/WX    TMP DP  RH WIND       PRES   REMARKS
ATLANTA        MOSUNNY   88  67  49 E15       30.05F HX  91
ANNISTON       SUNNY     91  64  40 E10G16    30.01F HX  92
BIRMINGHAM     PTSUNNY   92  67  43 NE7       30.02F HX  95
CHATTANOOGA    MOSUNNY   91  63  39 N7        30.05F HX  92
DALTON         SUNNY     90  64  43 N7        30.04S HX  91
GADSDEN        SUNNY     91  69  48 E7        30.02S HX  96
GOLDEN TRNGL   MOSUNNY   91  66  43 E12       29.97F HX  94
JACKSON TN     MOSUNNY   88  76  67 NE5       30.04F HX  99
MEMPHIS        CLOUDY    93  70  46 E10       30.02F HX  99
NASHVILLE      MOSUNNY   90  71  53 NE9       30.08F HX  96
OXFORD MS      FAIR      88  68  51 NE8       30.03R HX  91
ROME           MOSUNNY   90  66  45 NE8       30.02F HX  92
SAVANNAH       SUNNY     82  75  78 N5        30.03F
TUPELO         SUNNY     91  70  49 NE9       30.00F HX  96
TUSCALOOSA     SUNNY     91  71  51 N8        29.97F HX  97
$$

...GULF COAST WEATHER...

CITY           SKY/WX    TMP DP  RH WIND       PRES   REMARKS
GULFPORT       MOSUNNY   86  77  74 SE10      29.93S HX  97
PASCAGOULA     MOSUNNY   87  75  67 S6        29.94R HX  96
MOBILE         MOSUNNY   90  69  50 E10       29.95S HX  94
GULF SHORES    PTCLDY    86  75  68 SE5       29.93S HX  95
PENSACOLA      PTSUNNY   89  73  59 SE5       29.92S HX  97
DESTIN         MOSUNNY   94  72  48 NE8       29.92S HX 102
PANAMA CITY    PTSUNNY   88  76  67 SW10      29.92S HX  99
APPALACHICOLA  MOSUNNY   90  77  65 E5        29.92F HX 103
$$





USA.gov is the U.S. government's official web portal to all federal, state and local government web resources and services.